Flag for Austria Weather past 2 weeks in Hartberg, Styria, Austria

Now
64 °F

Broken clouds.


Feels Like: 64 °F
Forecast: 54 / 69 °F
Wind: 1 mph from North

Location: Graz-Thalerhof-Flughafen

Current Time: Sep 3, 2015 at 11:25:35 AM

Latest Report: Sep 3, 2015 at 10:50 AM


Visibility: N/A

Pressure: 30.01 "Hg

Humidity: 78%

Dew point: 57 °F

Location of HartbergLocation

Historic Weather in Hartberg — Graph

°F

Hartberg temperature yesterday

Maximum temperature yesterday: 75 °F (at 2:20 AM)
Minimum temperature yesterday: 63 °F (at 12:50 AM)
Average temperature yesterday: 68 °F

Past Weeks' High & Low Weather Summary

 TemperatureHumidityPressure
High90 °F (Sep 1, 4:50 PM)100% (Aug 19, 10:20 PM)30.24 "Hg (Aug 19, 10:20 PM)
Low50 °F (Aug 22, 6:20 AM)25% (Sep 1, 5:20 PM)29.77 "Hg (Sep 1, 4:50 PM)
Average67 °F76%30.06 "Hg
* Reported Aug 19 9:20 AM — Sep 3 9:50 AM, Hartberg, Weather by CustomWeather, © 2015

Note: Actual official high and low records may vary slightly from our data, if they occured in-between our weather recording intervals... More about our weather records

Advertising

Hartberg weather history for previous 24 hours

 ConditionsComfort  
Time TempWeatherWind HumidityBarometerVisibility
9:50 AM
Thu, Sep 3
64 °FBroken clouds.2 mph83%30.01 "HgN/A
9:20 AM63 °FBroken clouds.3 mph88%30.01 "HgN/A
8:50 AM63 °FThundershowers. Broken clouds.5 mph88%30.01 "HgN/A
8:20 AM63 °FPartly sunny.1 mph83%30.01 "HgN/A
7:50 AM61 °FPartly sunny.1 mph94%30.01 "HgN/A
7:20 AM61 °FPartly sunny.1 mph94%29.98 "HgN/A
6:50 AM61 °FPassing clouds.2 mph94%29.98 "HgN/A
6:20 AM61 °FPassing clouds.1 mph94%29.98 "HgN/A
5:50 AM61 °FPassing clouds.2 mph94%29.98 "HgN/A
5:20 AM61 °FPassing clouds.3 mph94%29.98 "HgN/A
4:50 AM61 °FPassing clouds.2 mph94%29.98 "HgN/A
4:20 AM61 °FPassing clouds.3 mph94%29.98 "HgN/A
3:50 AM61 °FPassing clouds.2 mph100%29.98 "HgN/A
3:20 AM61 °FPassing clouds.3 mph94%29.98 "HgN/A
2:50 AM63 °FPassing clouds.1 mph88%29.98 "HgN/A
2:20 AM63 °FPassing clouds.3 mph88%30.01 "HgN/A
1:50 AM63 °FPartly cloudy.5 mph88%30.01 "HgN/A
1:20 AM63 °FPassing clouds.5 mph88%30.01 "HgN/A
12:50 AM63 °FPartly cloudy.2 mph94%30.01 "HgN/A
12:20 AM63 °FPassing clouds.3 mph94%30.01 "HgN/A
11:50 PM
Wed, Sep 2
63 °FPassing clouds.2 mph88%29.98 "HgN/A
11:20 PM63 °FPassing clouds.5 mph88%29.98 "HgN/A
10:50 PM64 °FPassing clouds.3 mph83%29.98 "HgN/A
10:20 PM63 °FPassing clouds.3 mph94%29.98 "HgN/A
9:50 PM64 °FPassing clouds.3 mph94%29.98 "HgN/A
9:20 PM64 °FPartly cloudy.3 mph94%29.98 "HgN/A
8:50 PM64 °FSprinkles. Passing clouds.2 mph94%29.98 "HgN/A
8:20 PM64 °FRain showers. Broken clouds.2 mph94%29.98 "HgN/A
7:50 PM66 °FThunderstorms. Partly sunny.1 mph88%29.98 "HgN/A
7:20 PM66 °FPartly sunny.3 mph88%29.95 "HgN/A
6:50 PM66 °FPartly sunny.3 mph88%29.95 "HgN/A
6:20 PM66 °FPartly sunny.5 mph88%29.95 "HgN/A
5:50 PM66 °FPartly sunny.5 mph88%29.95 "HgN/A
5:20 PM66 °FSprinkles. Partly sunny.6 mph88%29.95 "HgN/A
4:50 PM66 °FSprinkles. Broken clouds.8 mph88%29.95 "HgN/A
4:20 PM66 °FSprinkles. Broken clouds.7 mph94%29.95 "HgN/A
3:50 PM66 °FRain showers. Partly sunny.6 mph94%29.95 "Hg4 mi
3:20 PM66 °FRain showers. Partly sunny.3 mph94%29.95 "Hg6 mi
2:50 PM70 °FMild.5 mph78%29.95 "Hg6 mi
2:20 PM73 °FPartly sunny.8 mph65%29.95 "HgN/A
1:50 PM73 °FPartly sunny.13 mph65%29.95 "HgN/A
1:20 PM75 °FPartly sunny.7 mph57%29.95 "HgN/A
12:50 PM75 °FBroken clouds.6 mph57%29.95 "HgN/A
12:20 PM75 °FBroken clouds.5 mph54%29.95 "HgN/A
11:50 AM75 °FPartly sunny.6 mph57%29.98 "HgN/A
11:20 AM73 °FPartly sunny.5 mph57%29.98 "HgN/A
Weather by CustomWeather, © 2015

See weather overviewHow to use our weather pages